カタログに戻る

FREGAT DEB

LostMEO
NORAD 46238·DEBRIS·🇷🇺 Russia

打ち上げ Jul 18, 2011 から Baikonur Cosmodrome

Loading…

次のパス (今後24時間)

TLE

古いSource: Space-Track

元期: May 31, 2026, 20:20 UTC

1 46238U 11037JY  26151.84758052 -.00025704  00000-0 -20602+1 0  9999
2 46238  50.4277 326.7409 0246525  10.1941 350.3680 10.31130368220039

AllMySatでFREGAT DEBをリアルタイム追跡

Download on the App Store